Powrót do katalogu

CZ-6A DEB

AktywnyPO
NORAD 54638·DEBRIS·🇨🇳 China

Wystrzelony Nov 11, 2022 z Taiyuan Satellite Launch Center

Loading…

Następne Przeloty (najbliższe 24 godziny)

TLE

ŚwieżeSource: Space-Track

Epoka: Sep 14, 2026, 05:30 UTC

1 54638U 22151PQ  26257.22961206  .00014334  00000-0  14436-2 0  9992
2 54638  98.6281 345.1507 0050430 315.5444  44.1729 14.90336861203895

Śledź CZ-6A DEB w czasie rzeczywistym z AllMySat

Download on the App Store